Location: Dana
(41.8364°N, 106.7042°W)
Time: 00:46:24
(UTC+00:00)

Vanguard 2 - Visible Passes

Search period start: 12 May 2026 00:00
Search period end: 22 May 2026 00:00
Orbit: 553 x 2895 km, 32.9° (Epoch: 11 May)

Date Brightness Start Highest point End Pass type
(mag) Time Alt. Az. Time Alt. Az. Time Alt. Az.
12 May 10.9 07:49:56 27° SSE 07:51:48 28° SE 08:04:18 10° E visible
12 May 10.4 09:50:47 23° SW 10:02:09 49° SSE 10:15:19 10° E visible
13 May 10.7 08:00:05 32° SSE 08:03:05 33° SSE 08:16:36 10° E visible
13 May 10.4 10:00:55 20° SW 10:13:42 54° SSE 10:27:03 10° E visible
14 May 11.4 06:09:19 14° ESE 06:09:19 14° ESE 06:13:30 10° ESE visible
14 May 10.6 08:10:09 35° S 08:14:25 39° SSE 08:28:40 10° E visible
14 May 10.3 10:10:59 17° WSW 10:25:16 57° S 10:38:46 10° E visible
15 May 11.2 06:19:19 19° ESE 06:19:19 19° ESE 06:27:07 10° E visible
15 May 10.5 08:20:08 36° S 08:25:47 44° SSE 08:40:36 10° E visible
15 May 10.3 10:20:58 13° WSW 10:36:51 60° S 10:50:25 10° E visible
16 May 11.0 06:29:14 25° SE 06:29:14 25° SE 06:39:55 10° E visible
16 May 10.4 08:30:03 35° SSW 08:37:12 49° SSE 08:52:25 10° E visible
16 May 10.3 10:31:11 10° WSW 10:48:27 61° S 11:02:04 10° ESE visible
17 May 10.7 06:39:03 31° SE 06:39:03 31° SE 06:52:19 10° E visible
17 May 10.4 08:39:51 32° SW 08:48:39 54° SSE 09:04:09 10° E visible
17 May 10.3 10:42:46 10° WSW 11:00:02 62° S 11:13:39 10° ESE visible
18 May 10.5 06:48:45 36° SSE 06:49:32 36° SSE 07:04:27 10° E visible
18 May 10.3 08:49:33 28° SW 09:00:09 57° SSE 09:15:53 10° E visible
18 May 10.3 10:54:23 10° W 11:11:36 61° S 11:25:13 10° ESE visible
19 May 11.3 04:57:31 14° ESE 04:57:31 14° ESE 05:00:58 10° E visible
19 May 10.3 06:58:18 40° SSE 07:00:47 42° SSE 07:16:25 10° E visible
19 May 10.3 08:59:06 22° WSW 09:11:42 60° S 09:27:32 10° E visible
19 May 10.3 11:06:02 10° W 11:23:09 59° SSW 11:36:42 10° ESE visible
20 May 11.0 05:06:53 20° ESE 05:06:53 20° ESE 05:14:09 10° E visible
20 May 10.3 07:07:39 41° S 07:12:06 47° SSE 07:28:15 10° E visible
20 May 10.3 09:08:25 15° WSW 09:23:16 62° S 09:39:11 10° E visible
21 May 10.7 05:15:57 26° SE 05:15:57 26° SE 05:26:45 10° E visible
21 May 10.2 07:16:40 36° SSW 07:23:27 52° SSE 07:40:01 10° E visible
21 May 10.3 09:18:11 10° WSW 09:34:50 63° S 09:50:46 10° ESE visible
